Time,TemperatureF,DewpointF,PressureIn,WindDirection,WindDirectionDegrees,WindSpeedMPH,WindSpeedGustMPH,Humidity,HourlyPrecipIn,Conditions,Clouds,dailyrainin,SoftwareType,DateUTC
2013-11-16 00:00:00,45.3,43.3,30.21,WSW,254,2.0,4.0,93,0.00,,,0.00,meteobridge,2013-11-16 05:00:00,
2013-11-16 00:01:00,45.3,43.3,30.21,WSW,254,2.9,4.0,93,0.00,,,0.00,meteobridge,2013-11-16 05:01:00,
2013-11-16 00:02:00,45.3,43.3,30.21,WSW,254,2.0,4.0,93,0.00,,,0.00,meteobridge,2013-11-16 05:02:00,
2013-11-16 00:03:00,45.3,43.3,30.21,WSW,254,0.9,2.0,93,0.00,,,0.00,meteobridge,2013-11-16 05:03:00,
2013-11-16 00:08:00,45.7,43.5,30.21,WSW,254,0.0,2.0,92,0.00,,,0.00,meteobridge,2013-11-16 05:08:00,
2013-11-16 00:13:00,45.7,43.5,30.21,WSW,254,2.0,2.9,92,0.00,,,0.00,meteobridge,2013-11-16 05:13:00,
2013-11-16 00:18:00,45.9,43.3,30.21,WSW,255,2.9,2.9,91,0.00,,,0.00,meteobridge,2013-11-16 05:18:00,
2013-11-16 00:23:00,45.7,43.2,30.21,West,263,2.0,4.0,91,0.00,,,0.00,meteobridge,2013-11-16 05:23:00,
2013-11-16 00:28:00,45.7,43.0,30.21,West,261,2.0,2.9,90,0.00,,,0.00,meteobridge,2013-11-16 05:28:00,
2013-11-16 00:33:00,45.9,43.2,30.21,West,261,0.9,2.9,90,0.00,,,0.00,meteobridge,2013-11-16 05:33:00,
2013-11-16 00:39:00,46.0,43.0,30.21,WSW,258,0.9,2.9,89,0.00,,,0.00,meteobridge,2013-11-16 05:39:00,
2013-11-16 00:44:00,46.0,43.0,30.21,WSW,258,0.9,2.9,89,0.00,,,0.00,meteobridge,2013-11-16 05:44:00,
2013-11-16 00:49:00,46.0,43.0,30.21,WSW,254,0.0,4.0,89,0.00,,,0.00,meteobridge,2013-11-16 05:49:00,
2013-11-16 00:54:00,46.0,42.6,30.21,WSW,254,2.0,2.0,88,0.00,,,0.00,meteobridge,2013-11-16 05:54:00,
2013-11-16 00:59:00,46.0,42.6,30.21,WSW,254,2.0,2.9,88,0.00,,,0.00,meteobridge,2013-11-16 05:59:00,
2013-11-16 01:04:00,46.2,42.8,30.21,WSW,254,0.9,2.9,88,0.00,,,0.00,meteobridge,2013-11-16 06:04:00,
2013-11-16 01:09:00,46.2,42.8,30.21,WSW,254,0.0,0.0,88,0.00,,,0.00,meteobridge,2013-11-16 06:09:00,
2013-11-16 01:14:00,46.2,42.8,30.21,WSW,249,2.0,4.9,88,0.00,,,0.00,meteobridge,2013-11-16 06:14:00,
2013-11-16 01:19:00,46.2,42.6,30.21,West,259,2.0,2.9,87,0.00,,,0.00,meteobridge,2013-11-16 06:19:00,
2013-11-16 01:25:00,46.2,42.6,30.21,WSW,257,2.9,4.0,87,0.00,,,0.00,meteobridge,2013-11-16 06:25:00,
2013-11-16 01:30:00,46.2,42.6,30.22,WSW,244,4.0,4.0,87,0.00,,,0.00,meteobridge,2013-11-16 06:30:00,
2013-11-16 01:35:00,46.2,42.6,30.22,West,267,2.9,4.9,87,0.00,,,0.00,meteobridge,2013-11-16 06:35:00,
2013-11-16 01:40:00,46.2,42.3,30.22,WSW,254,2.9,4.9,86,0.00,,,0.00,meteobridge,2013-11-16 06:40:00,
2013-11-16 01:45:00,46.6,42.6,30.21,WSW,254,4.0,4.0,86,0.00,,,0.00,meteobridge,2013-11-16 06:45:00,
2013-11-16 01:50:00,46.6,42.6,30.21,WSW,250,2.0,4.0,86,0.00,,,0.00,meteobridge,2013-11-16 06:50:00,
2013-11-16 01:55:00,46.8,42.4,30.21,WSW,241,2.0,4.0,85,0.00,,,0.00,meteobridge,2013-11-16 06:55:00,
2013-11-16 02:00:00,46.8,42.4,30.21,WSW,255,2.0,4.9,85,0.00,,,0.00,meteobridge,2013-11-16 07:00:00,
2013-11-16 02:05:00,46.9,42.4,30.21,WSW,243,4.0,4.9,84,0.00,,,0.00,meteobridge,2013-11-16 07:05:00,
2013-11-16 02:10:00,46.9,42.4,30.21,WSW,249,2.9,6.9,84,0.00,,,0.00,meteobridge,2013-11-16 07:10:00,
2013-11-16 02:15:00,47.1,42.3,30.22,West,279,0.9,4.9,83,0.00,,,0.00,meteobridge,2013-11-16 07:15:00,
2013-11-16 02:20:00,47.1,42.3,30.21,West,279,0.9,2.0,83,0.00,,,0.00,meteobridge,2013-11-16 07:20:00,
2013-11-16 02:25:00,46.9,42.1,30.21,West,278,0.9,2.0,83,0.00,,,0.00,meteobridge,2013-11-16 07:25:00,
2013-11-16 02:30:00,46.9,42.1,30.21,West,278,0.0,0.9,83,0.00,,,0.00,meteobridge,2013-11-16 07:30:00,
2013-11-16 02:35:00,46.9,42.1,30.21,West,278,0.0,0.9,83,0.00,,,0.00,meteobridge,2013-11-16 07:35:00,
2013-11-16 02:40:00,46.8,41.9,30.21,West,278,0.0,0.9,83,0.00,,,0.00,meteobridge,2013-11-16 07:40:00,
2013-11-16 02:45:00,46.6,41.7,30.20,West,278,0.0,0.0,83,0.00,,,0.00,meteobridge,2013-11-16 07:45:00,
2013-11-16 02:50:00,46.6,42.1,30.20,West,278,0.9,2.0,84,0.00,,,0.00,meteobridge,2013-11-16 07:50:00,
2013-11-16 02:56:00,46.4,41.9,30.20,West,278,0.9,0.9,84,0.00,,,0.00,meteobridge,2013-11-16 07:56:00,
2013-11-16 03:01:00,46.2,41.7,30.21,West,278,2.0,2.0,84,0.00,,,0.00,meteobridge,2013-11-16 08:01:00,
2013-11-16 03:06:00,45.9,41.4,30.21,West,278,2.0,2.9,84,0.00,,,0.00,meteobridge,2013-11-16 08:06:00,
2013-11-16 03:11:00,45.5,41.2,30.21,West,278,0.9,4.0,85,0.00,,,0.00,meteobridge,2013-11-16 08:11:00,
2013-11-16 03:16:00,45.7,41.4,30.21,West,278,0.0,2.0,85,0.00,,,0.00,meteobridge,2013-11-16 08:16:00,
2013-11-16 03:21:00,45.7,41.4,30.21,West,278,0.0,2.0,85,0.00,,,0.00,meteobridge,2013-11-16 08:21:00,
2013-11-16 03:26:00,45.7,41.4,30.21,West,278,0.0,0.9,85,0.00,,,0.00,meteobridge,2013-11-16 08:26:00,
2013-11-16 03:31:00,45.7,41.4,30.21,West,278,0.9,2.0,85,0.00,,,0.00,meteobridge,2013-11-16 08:31:00,
2013-11-16 03:37:00,45.1,40.8,30.21,West,278,2.9,2.9,85,0.00,,,0.00,meteobridge,2013-11-16 08:37:00,
2013-11-16 03:42:00,44.8,40.8,30.21,West,259,2.9,4.0,86,0.00,,,0.00,meteobridge,2013-11-16 08:42:00,
2013-11-16 03:47:00,44.8,40.8,30.22,West,262,2.0,4.0,86,0.00,,,0.00,meteobridge,2013-11-16 08:47:00,
2013-11-16 03:52:00,45.0,40.6,30.22,West,259,4.0,4.0,85,0.00,,,0.00,meteobridge,2013-11-16 08:52:00,
2013-11-16 03:57:00,45.0,40.5,30.22,West,259,2.9,4.0,84,0.00,,,0.00,meteobridge,2013-11-16 08:57:00,
2013-11-16 04:02:00,45.1,40.3,30.22,WSW,251,4.0,6.0,83,0.00,,,0.00,meteobridge,2013-11-16 09:02:00,
2013-11-16 04:07:00,45.1,39.9,30.23,WSW,258,2.9,4.0,82,0.00,,,0.00,meteobridge,2013-11-16 09:07:00,
2013-11-16 04:12:00,45.5,40.1,30.23,WSW,257,2.0,4.0,81,0.00,,,0.00,meteobridge,2013-11-16 09:12:00,
2013-11-16 04:17:00,45.7,39.9,30.23,WSW,255,0.9,4.0,80,0.00,,,0.00,meteobridge,2013-11-16 09:17:00,
2013-11-16 04:22:00,45.9,39.7,30.23,West,277,0.9,4.0,79,0.00,,,0.00,meteobridge,2013-11-16 09:22:00,
2013-11-16 04:27:00,45.9,39.7,30.23,West,277,0.9,2.0,79,0.00,,,0.00,meteobridge,2013-11-16 09:27:00,
2013-11-16 04:33:00,45.9,39.4,30.23,West,276,0.9,2.9,78,0.00,,,0.00,meteobridge,2013-11-16 09:33:00,
2013-11-16 04:38:00,45.9,39.4,30.23,West,276,2.0,2.9,78,0.00,,,0.00,meteobridge,2013-11-16 09:38:00,
2013-11-16 04:43:00,45.9,39.4,30.23,West,276,2.0,2.9,78,0.00,,,0.00,meteobridge,2013-11-16 09:43:00,
2013-11-16 04:48:00,45.9,39.4,30.22,West,276,0.0,0.0,78,0.00,,,0.00,meteobridge,2013-11-16 09:48:00,
2013-11-16 04:53:00,45.7,39.6,30.22,West,276,0.0,0.0,79,0.00,,,0.00,meteobridge,2013-11-16 09:53:00,
2013-11-16 04:58:00,45.7,39.6,30.22,West,276,0.0,0.0,79,0.00,,,0.00,meteobridge,2013-11-16 09:58:00,
2013-11-16 05:03:00,45.3,39.2,30.22,West,276,0.0,0.0,79,0.00,,,0.00,meteobridge,2013-11-16 10:03:00,
2013-11-16 05:09:00,45.1,39.4,30.22,West,276,0.0,0.0,80,0.00,,,0.00,meteobridge,2013-11-16 10:09:00,
2013-11-16 05:14:00,45.0,39.2,30.22,West,276,0.0,0.0,80,0.00,,,0.00,meteobridge,2013-11-16 10:14:00,
2013-11-16 05:19:00,44.8,39.6,30.22,West,276,0.0,0.0,82,0.00,,,0.00,meteobridge,2013-11-16 10:19:00,
2013-11-16 05:25:00,44.2,39.7,30.22,West,276,0.0,0.0,84,0.00,,,0.00,meteobridge,2013-11-16 10:25:00,
2013-11-16 05:30:00,43.9,39.7,30.22,West,276,0.0,0.0,85,0.00,,,0.00,meteobridge,2013-11-16 10:30:00,
2013-11-16 05:35:00,43.5,39.4,30.22,West,276,0.9,0.9,85,0.00,,,0.00,meteobridge,2013-11-16 10:35:00,
2013-11-16 05:40:00,43.2,39.2,30.23,West,271,2.9,4.9,86,0.00,,,0.00,meteobridge,2013-11-16 10:40:00,
2013-11-16 05:45:00,42.6,39.0,30.23,West,277,2.9,4.9,87,0.00,,,0.00,meteobridge,2013-11-16 10:45:00,
2013-11-16 05:50:00,43.2,39.0,30.23,WNW,290,0.9,2.9,85,0.00,,,0.00,meteobridge,2013-11-16 10:50:00,
2013-11-16 05:56:00,43.9,38.7,30.23,WNW,290,0.0,2.9,82,0.00,,,0.00,meteobridge,2013-11-16 10:56:00,
2013-11-16 06:01:00,44.2,38.5,30.24,WNW,290,2.9,4.0,80,0.00,,,0.00,meteobridge,2013-11-16 11:01:00,
2013-11-16 06:06:00,44.2,38.5,30.23,WNW,290,0.0,0.0,80,0.00,,,0.00,meteobridge,2013-11-16 11:06:00,
2013-11-16 06:11:00,44.2,38.8,30.22,WNW,290,0.0,0.0,81,0.00,,,0.00,meteobridge,2013-11-16 11:11:00,
2013-11-16 06:16:00,44.1,38.7,30.24,WNW,290,2.0,2.9,81,0.00,,,0.00,meteobridge,2013-11-16 11:16:00,
2013-11-16 06:21:00,43.9,38.7,30.24,West,279,2.9,4.0,82,0.00,,,0.00,meteobridge,2013-11-16 11:21:00,
2013-11-16 06:26:00,43.5,38.7,30.24,West,279,0.9,2.0,83,0.00,,,0.00,meteobridge,2013-11-16 11:26:00,
2013-11-16 06:31:00,43.5,38.1,30.24,West,279,2.9,2.9,81,0.00,,,0.00,meteobridge,2013-11-16 11:31:00,
2013-11-16 06:36:00,43.7,38.5,30.24,West,279,0.9,0.9,82,0.00,,,0.00,meteobridge,2013-11-16 11:36:00,
2013-11-16 06:42:00,43.9,37.8,30.24,West,279,4.0,4.0,79,0.00,,,0.00,meteobridge,2013-11-16 11:42:00,
2013-11-16 06:47:00,43.9,38.1,30.25,West,273,0.9,4.0,80,0.00,,,0.00,meteobridge,2013-11-16 11:47:00,
2013-11-16 06:52:00,44.1,38.3,30.25,West,273,0.9,2.0,80,0.00,,,0.00,meteobridge,2013-11-16 11:52:00,
2013-11-16 06:57:00,44.1,37.4,30.25,West,273,0.0,0.9,77,0.00,,,0.00,meteobridge,2013-11-16 11:57:00,
2013-11-16 07:02:00,44.2,37.2,30.25,West,273,0.9,0.9,76,0.00,,,0.00,meteobridge,2013-11-16 12:02:00,
2013-11-16 07:07:00,44.4,37.0,30.25,West,273,0.0,0.0,75,0.00,,,0.00,meteobridge,2013-11-16 12:07:00,
2013-11-16 07:12:00,44.6,37.2,30.26,West,273,0.0,2.0,75,0.00,,,0.00,meteobridge,2013-11-16 12:12:00,
2013-11-16 07:17:00,44.8,37.9,30.26,West,273,0.0,0.0,77,0.00,,,0.00,meteobridge,2013-11-16 12:17:00,
2013-11-16 07:22:00,44.8,38.7,30.26,West,273,0.0,0.9,79,0.00,,,0.00,meteobridge,2013-11-16 12:22:00,
2013-11-16 07:28:00,44.2,38.5,30.26,West,273,0.0,0.0,80,0.00,,,0.00,meteobridge,2013-11-16 12:28:00,
2013-11-16 07:33:00,44.2,39.0,30.27,West,273,2.0,2.9,82,0.00,,,0.00,meteobridge,2013-11-16 12:33:00,
2013-11-16 07:38:00,44.1,38.3,30.27,West,273,0.0,2.9,80,0.00,,,0.00,meteobridge,2013-11-16 12:38:00,
2013-11-16 07:43:00,44.2,37.8,30.27,West,273,0.0,0.0,78,0.00,,,0.00,meteobridge,2013-11-16 12:43:00,
2013-11-16 07:48:00,44.4,37.0,30.27,West,273,0.0,0.0,75,0.00,,,0.00,meteobridge,2013-11-16 12:48:00,
2013-11-16 07:53:00,45.0,37.2,30.27,West,273,0.0,0.0,74,0.00,,,0.00,meteobridge,2013-11-16 12:53:00,
2013-11-16 07:59:00,45.1,37.0,30.27,West,273,0.0,0.9,73,0.00,,,0.00,meteobridge,2013-11-16 12:59:00,
2013-11-16 08:04:00,45.3,37.6,30.27,West,273,0.9,0.9,74,0.00,,,0.00,meteobridge,2013-11-16 13:04:00,
2013-11-16 08:09:00,45.3,37.2,30.27,West,273,0.0,0.9,73,0.00,,,0.00,meteobridge,2013-11-16 13:09:00,
2013-11-16 08:14:00,45.3,37.2,30.28,West,273,2.0,2.0,73,0.00,,,0.00,meteobridge,2013-11-16 13:14:00,
2013-11-16 08:20:00,45.5,38.7,30.28,West,273,2.0,2.9,77,0.00,,,0.00,meteobridge,2013-11-16 13:20:00,
2013-11-16 08:25:00,45.3,37.9,30.28,West,273,0.9,0.9,75,0.00,,,0.00,meteobridge,2013-11-16 13:25:00,
2013-11-16 08:30:00,45.3,37.6,30.28,West,273,0.0,0.9,74,0.00,,,0.00,meteobridge,2013-11-16 13:30:00,
2013-11-16 08:35:00,45.5,38.1,30.28,West,273,0.0,0.0,75,0.00,,,0.00,meteobridge,2013-11-16 13:35:00,
2013-11-16 08:40:00,45.5,38.1,30.28,West,273,0.9,2.0,75,0.00,,,0.00,meteobridge,2013-11-16 13:40:00,
2013-11-16 08:45:00,45.5,37.4,30.28,West,273,0.0,2.0,73,0.00,,,0.00,meteobridge,2013-11-16 13:45:00,
2013-11-16 08:50:00,45.7,36.9,30.29,West,273,0.0,0.9,71,0.00,,,0.00,meteobridge,2013-11-16 13:50:00,
2013-11-16 08:55:00,45.7,36.9,30.29,West,273,0.0,0.9,71,0.00,,,0.00,meteobridge,2013-11-16 13:55:00,
2013-11-16 09:00:00,45.9,36.7,30.29,West,273,0.0,0.0,70,0.00,,,0.00,meteobridge,2013-11-16 14:00:00,
2013-11-16 09:05:00,45.9,36.7,30.29,West,273,0.0,0.9,70,0.00,,,0.00,meteobridge,2013-11-16 14:05:00,
2013-11-16 09:10:00,46.0,37.2,30.29,West,273,0.0,0.0,71,0.00,,,0.00,meteobridge,2013-11-16 14:10:00,
2013-11-16 09:16:00,46.0,36.9,30.29,West,273,0.0,0.0,70,0.00,,,0.00,meteobridge,2013-11-16 14:16:00,
2013-11-16 09:21:00,46.2,37.0,30.29,West,273,0.0,0.0,70,0.00,,,0.00,meteobridge,2013-11-16 14:21:00,
2013-11-16 09:26:00,46.4,36.9,30.29,West,273,0.0,0.0,69,0.00,,,0.00,meteobridge,2013-11-16 14:26:00,
2013-11-16 09:31:00,46.6,37.0,30.29,West,273,0.0,0.9,69,0.00,,,0.00,meteobridge,2013-11-16 14:31:00,
2013-11-16 09:36:00,46.8,37.2,30.29,West,273,0.0,0.0,69,0.00,,,0.00,meteobridge,2013-11-16 14:36:00,
2013-11-16 09:41:00,46.9,36.5,30.29,NNW,329,0.0,0.0,67,0.00,,,0.00,meteobridge,2013-11-16 14:41:00,
2013-11-16 09:46:00,47.3,36.9,30.29,West,275,2.9,2.9,67,0.00,,,0.00,meteobridge,2013-11-16 14:46:00,
2013-11-16 09:51:00,47.5,37.0,30.29,West,275,0.0,2.0,67,0.00,,,0.00,meteobridge,2013-11-16 14:51:00,
2013-11-16 09:57:00,47.8,37.0,30.29,West,275,0.0,0.9,66,0.00,,,0.00,meteobridge,2013-11-16 14:57:00,
2013-11-16 10:02:00,48.0,37.2,30.29,West,274,0.0,0.0,66,0.00,,,0.00,meteobridge,2013-11-16 15:02:00,
2013-11-16 10:07:00,48.4,37.2,30.29,West,275,0.9,2.0,65,0.00,,,0.00,meteobridge,2013-11-16 15:07:00,
2013-11-16 10:12:00,48.6,36.5,30.29,West,275,0.9,2.9,63,0.00,,,0.00,meteobridge,2013-11-16 15:12:00,
2013-11-16 10:17:00,48.9,36.5,30.29,West,275,0.0,0.9,62,0.00,,,0.00,meteobridge,2013-11-16 15:17:00,
2013-11-16 10:22:00,49.5,37.0,30.29,West,275,0.0,0.0,62,0.00,,,0.00,meteobridge,2013-11-16 15:22:00,
2013-11-16 10:27:00,49.8,37.4,30.29,West,275,0.9,0.9,62,0.00,,,0.00,meteobridge,2013-11-16 15:27:00,
2013-11-16 10:33:00,50.4,37.4,30.29,West,275,0.0,0.0,61,0.00,,,0.00,meteobridge,2013-11-16 15:33:00,
2013-11-16 10:38:00,50.7,36.9,30.29,West,274,0.0,2.0,59,0.00,,,0.00,meteobridge,2013-11-16 15:38:00,
2013-11-16 10:43:00,51.1,36.9,30.29,West,274,0.0,0.9,58,0.00,,,0.00,meteobridge,2013-11-16 15:43:00,
2013-11-16 10:48:00,51.3,37.0,30.29,West,274,0.9,0.9,58,0.00,,,0.00,meteobridge,2013-11-16 15:48:00,
2013-11-16 10:53:00,51.4,36.7,30.28,West,274,0.0,0.0,57,0.00,,,0.00,meteobridge,2013-11-16 15:53:00,
2013-11-16 10:59:00,51.8,35.6,30.28,West,274,0.0,0.0,54,0.00,,,0.00,meteobridge,2013-11-16 15:59:00,
2013-11-16 11:04:00,52.2,36.9,30.28,South,169,2.0,2.0,56,0.00,,,0.00,meteobridge,2013-11-16 16:04:00,
2013-11-16 11:09:00,52.0,37.6,30.28,South,169,0.0,2.0,58,0.00,,,0.00,meteobridge,2013-11-16 16:09:00,
2013-11-16 11:14:00,52.0,37.6,30.28,SE,133,0.9,2.0,58,0.00,,,0.00,meteobridge,2013-11-16 16:14:00,
2013-11-16 11:19:00,52.2,37.4,30.28,SE,133,0.0,0.9,57,0.00,,,0.00,meteobridge,2013-11-16 16:19:00,
2013-11-16 11:24:00,52.3,36.7,30.28,SE,133,0.9,2.0,55,0.00,,,0.00,meteobridge,2013-11-16 16:24:00,
2013-11-16 11:29:00,52.3,36.7,30.27,SE,140,2.9,2.9,55,0.00,,,0.00,meteobridge,2013-11-16 16:29:00,
2013-11-16 11:34:00,52.3,37.6,30.27,SE,140,0.9,2.9,57,0.00,,,0.00,meteobridge,2013-11-16 16:34:00,
2013-11-16 11:39:00,52.0,36.9,30.27,SE,140,0.9,2.0,56,0.00,,,0.00,meteobridge,2013-11-16 16:39:00,
2013-11-16 11:44:00,51.8,37.6,30.27,SE,140,0.0,0.9,58,0.00,,,0.00,meteobridge,2013-11-16 16:44:00,
2013-11-16 11:50:00,52.0,37.6,30.27,SE,140,0.9,2.0,58,0.00,,,0.00,meteobridge,2013-11-16 16:50:00,
2013-11-16 11:55:00,52.2,36.5,30.27,SE,140,0.0,2.0,55,0.00,,,0.00,meteobridge,2013-11-16 16:55:00,
2013-11-16 12:00:00,52.3,36.1,30.27,SE,140,2.0,2.0,54,0.00,,,0.00,meteobridge,2013-11-16 17:00:00,
2013-11-16 12:05:00,52.5,36.9,30.27,SE,140,0.9,2.0,55,0.00,,,0.00,meteobridge,2013-11-16 17:05:00,
2013-11-16 12:10:00,52.7,37.9,30.27,SE,140,0.9,0.9,57,0.00,,,0.00,meteobridge,2013-11-16 17:10:00,
2013-11-16 12:15:00,53.1,39.6,30.27,SE,132,0.0,2.0,60,0.00,,,0.00,meteobridge,2013-11-16 17:15:00,
2013-11-16 12:20:00,53.4,39.9,30.26,SSE,148,2.9,2.9,60,0.00,,,0.00,meteobridge,2013-11-16 17:20:00,
2013-11-16 12:25:00,53.8,39.4,30.26,SSE,150,2.0,2.0,58,0.00,,,0.00,meteobridge,2013-11-16 17:25:00,
2013-11-16 12:30:00,54.0,38.7,30.26,SSE,147,2.0,2.9,56,0.00,,,0.00,meteobridge,2013-11-16 17:30:00,
2013-11-16 12:35:00,54.0,38.1,30.26,SSE,148,0.0,0.9,55,0.00,,,0.00,meteobridge,2013-11-16 17:35:00,
2013-11-16 12:40:00,54.1,38.8,30.26,SSE,147,0.0,2.9,56,0.00,,,0.00,meteobridge,2013-11-16 17:40:00,
2013-11-16 12:45:00,54.1,39.2,30.26,SSE,147,0.0,2.0,57,0.00,,,0.00,meteobridge,2013-11-16 17:45:00,
2013-11-16 12:50:00,54.7,39.4,30.25,SSE,147,2.0,2.9,56,0.00,,,0.00,meteobridge,2013-11-16 17:50:00,
2013-11-16 12:55:00,55.0,39.2,30.25,SE,140,2.0,2.9,55,0.00,,,0.00,meteobridge,2013-11-16 17:55:00,
2013-11-16 13:01:00,55.4,39.0,30.25,SE,139,2.9,2.9,54,0.00,,,0.00,meteobridge,2013-11-16 18:01:00,
2013-11-16 13:06:00,55.8,40.3,30.25,SE,139,0.0,2.9,56,0.00,,,0.00,meteobridge,2013-11-16 18:06:00,
2013-11-16 13:11:00,55.9,42.3,30.25,SE,136,0.9,2.9,60,0.00,,,0.00,meteobridge,2013-11-16 18:11:00,
2013-11-16 13:16:00,55.8,42.4,30.25,SSE,153,2.0,4.0,61,0.00,,,0.00,meteobridge,2013-11-16 18:16:00,
2013-11-16 13:21:00,55.8,43.3,30.25,SSE,153,0.9,0.9,63,0.00,,,0.00,meteobridge,2013-11-16 18:21:00,
2013-11-16 13:26:00,55.9,44.4,30.25,SSE,153,2.9,4.0,65,0.00,,,0.00,meteobridge,2013-11-16 18:26:00,
2013-11-16 13:31:00,55.9,44.8,30.24,SSE,148,2.9,4.0,66,0.00,,,0.00,meteobridge,2013-11-16 18:31:00,
2013-11-16 13:36:00,56.1,45.3,30.24,SSE,148,0.0,4.0,67,0.00,,,0.00,meteobridge,2013-11-16 18:36:00,
2013-11-16 13:41:00,56.3,45.5,30.24,SSE,157,0.0,2.0,67,0.00,,,0.00,meteobridge,2013-11-16 18:41:00,
2013-11-16 13:46:00,56.7,45.5,30.24,SSW,213,0.9,0.9,66,0.00,,,0.00,meteobridge,2013-11-16 18:46:00,
2013-11-16 13:51:00,57.0,45.0,30.24,West,259,0.0,2.0,64,0.00,,,0.00,meteobridge,2013-11-16 18:51:00,
2013-11-16 13:56:00,57.6,45.5,30.24,West,271,2.0,2.0,64,0.00,,,0.00,meteobridge,2013-11-16 18:56:00,
2013-11-16 14:01:00,57.9,45.9,30.24,SW,227,0.0,2.0,64,0.00,,,0.00,meteobridge,2013-11-16 19:01:00,
2013-11-16 14:06:00,58.1,45.5,30.24,WSW,254,0.0,2.0,63,0.00,,,0.00,meteobridge,2013-11-16 19:06:00,
2013-11-16 14:12:00,58.3,45.0,30.25,WSW,253,0.0,0.0,61,0.00,,,0.00,meteobridge,2013-11-16 19:12:00,
2013-11-16 14:17:00,57.9,45.0,30.25,SE,142,0.0,0.9,62,0.00,,,0.00,meteobridge,2013-11-16 19:17:00,
2013-11-16 14:22:00,57.7,44.8,30.25,West,268,2.9,4.0,62,0.00,,,0.00,meteobridge,2013-11-16 19:22:00,
2013-11-16 14:27:00,58.3,45.0,30.25,West,275,2.9,4.9,61,0.00,,,0.00,meteobridge,2013-11-16 19:27:00,
2013-11-16 14:32:00,59.2,37.9,30.25,WNW,295,4.0,6.9,45,0.00,,,0.00,meteobridge,2013-11-16 19:32:00,
2013-11-16 14:37:00,59.7,37.2,30.26,West,268,6.9,12.1,43,0.00,,,0.00,meteobridge,2013-11-16 19:37:00,
2013-11-16 14:42:00,59.9,37.9,30.26,West,266,4.0,6.9,44,0.00,,,0.00,meteobridge,2013-11-16 19:42:00,
2013-11-16 14:47:00,59.9,37.9,30.26,WNW,292,4.9,8.1,44,0.00,,,0.00,meteobridge,2013-11-16 19:47:00,
2013-11-16 14:52:00,59.7,37.8,30.27,WNW,292,4.0,10.1,44,0.00,,,0.00,meteobridge,2013-11-16 19:52:00,
2013-11-16 14:57:00,59.5,38.1,30.27,West,262,4.9,8.9,45,0.00,,,0.00,meteobridge,2013-11-16 19:57:00,
2013-11-16 15:02:00,59.5,38.1,30.27,WNW,291,2.9,6.0,45,0.00,,,0.00,meteobridge,2013-11-16 20:02:00,
2013-11-16 15:07:00,59.5,38.1,30.26,NNW,328,2.0,6.9,45,0.00,,,0.00,meteobridge,2013-11-16 20:07:00,
2013-11-16 15:12:00,59.5,38.1,30.27,WNW,282,4.0,8.9,45,0.00,,,0.00,meteobridge,2013-11-16 20:12:00,
2013-11-16 15:17:00,59.4,37.9,30.27,WNW,285,2.9,6.9,45,0.00,,,0.00,meteobridge,2013-11-16 20:17:00,
2013-11-16 15:22:00,59.2,38.5,30.27,WNW,290,6.0,8.1,46,0.00,,,0.00,meteobridge,2013-11-16 20:22:00,
2013-11-16 15:27:00,59.2,38.5,30.27,WNW,294,2.9,4.0,46,0.00,,,0.00,meteobridge,2013-11-16 20:27:00,
2013-11-16 15:32:00,58.8,38.1,30.27,West,279,2.9,4.0,46,0.00,,,0.00,meteobridge,2013-11-16 20:32:00,
2013-11-16 15:37:00,58.6,38.5,30.27,West,270,6.9,6.9,47,0.00,,,0.00,meteobridge,2013-11-16 20:37:00,
2013-11-16 15:42:00,58.6,38.5,30.27,WNW,282,2.9,4.9,47,0.00,,,0.00,meteobridge,2013-11-16 20:42:00,
2013-11-16 15:47:00,58.5,38.3,30.27,WNW,283,2.9,4.9,47,0.00,,,0.00,meteobridge,2013-11-16 20:47:00,
2013-11-16 15:53:00,58.5,38.8,30.28,West,261,0.9,2.9,48,0.00,,,0.00,meteobridge,2013-11-16 20:53:00,
2013-11-16 15:58:00,58.1,44.2,30.28,SW,234,2.9,6.0,60,0.00,,,0.00,meteobridge,2013-11-16 20:58:00,
2013-11-16 16:03:00,57.4,44.4,30.29,WSW,250,2.9,8.9,62,0.00,,,0.00,meteobridge,2013-11-16 21:03:00,
2013-11-16 16:08:00,56.5,44.8,30.29,WSW,247,4.9,8.1,65,0.00,,,0.00,meteobridge,2013-11-16 21:08:00,
2013-11-16 16:13:00,55.8,45.0,30.29,WSW,252,4.9,6.0,67,0.00,,,0.00,meteobridge,2013-11-16 21:13:00,
2013-11-16 16:18:00,55.0,44.6,30.29,West,270,4.9,4.9,68,0.00,,,0.00,meteobridge,2013-11-16 21:18:00,
2013-11-16 16:23:00,54.7,44.8,30.29,WSW,237,4.9,6.9,69,0.00,,,0.00,meteobridge,2013-11-16 21:23:00,
2013-11-16 16:28:00,54.1,44.6,30.29,WSW,254,2.9,8.1,70,0.00,,,0.00,meteobridge,2013-11-16 21:28:00,
2013-11-16 16:33:00,54.0,44.4,30.29,WSW,257,6.0,6.0,70,0.00,,,0.00,meteobridge,2013-11-16 21:33:00,
2013-11-16 16:38:00,53.6,44.4,30.29,WSW,258,2.0,4.0,71,0.00,,,0.00,meteobridge,2013-11-16 21:38:00,
2013-11-16 16:43:00,53.2,44.1,30.29,WSW,244,2.9,4.0,71,0.00,,,0.00,meteobridge,2013-11-16 21:43:00,
2013-11-16 16:48:00,52.9,44.1,30.29,WSW,254,4.0,4.0,72,0.00,,,0.00,meteobridge,2013-11-16 21:48:00,
2013-11-16 16:53:00,52.7,43.9,30.29,WSW,252,2.9,4.0,72,0.00,,,0.00,meteobridge,2013-11-16 21:53:00,
2013-11-16 16:58:00,52.5,44.1,30.29,WSW,255,2.0,4.9,73,0.00,,,0.00,meteobridge,2013-11-16 21:58:00,
2013-11-16 17:03:00,52.2,44.1,30.30,WSW,250,4.9,6.0,74,0.00,,,0.00,meteobridge,2013-11-16 22:03:00,
2013-11-16 17:08:00,52.0,43.9,30.30,West,265,2.9,4.0,74,0.00,,,0.00,meteobridge,2013-11-16 22:08:00,
2013-11-16 17:13:00,51.6,43.9,30.30,WSW,247,2.0,6.0,75,0.00,,,0.00,meteobridge,2013-11-16 22:13:00,
2013-11-16 17:18:00,51.4,44.1,30.30,West,261,2.9,4.0,76,0.00,,,0.00,meteobridge,2013-11-16 22:18:00,
2013-11-16 17:23:00,51.3,43.9,30.30,WSW,252,0.9,4.0,76,0.00,,,0.00,meteobridge,2013-11-16 22:23:00,
2013-11-16 17:29:00,51.1,44.1,30.30,West,269,2.0,4.0,77,0.00,,,0.00,meteobridge,2013-11-16 22:29:00,
2013-11-16 17:34:00,51.1,44.1,30.30,West,269,2.0,2.9,77,0.00,,,0.00,meteobridge,2013-11-16 22:34:00,
2013-11-16 17:39:00,50.9,43.9,30.30,West,264,2.9,2.9,77,0.00,,,0.00,meteobridge,2013-11-16 22:39:00,
2013-11-16 17:44:00,50.7,43.7,30.31,West,264,0.9,2.0,77,0.00,,,0.00,meteobridge,2013-11-16 22:44:00,
2013-11-16 17:49:00,50.5,43.5,30.30,West,264,0.9,2.0,77,0.00,,,0.00,meteobridge,2013-11-16 22:49:00,
2013-11-16 17:54:00,50.5,43.9,30.31,West,265,0.9,2.9,78,0.00,,,0.00,meteobridge,2013-11-16 22:54:00,
2013-11-16 17:59:00,50.4,43.7,30.31,West,265,0.0,2.9,78,0.00,,,0.00,meteobridge,2013-11-16 22:59:00,
2013-11-16 18:04:00,50.2,43.5,30.31,West,265,0.9,2.0,78,0.00,,,0.00,meteobridge,2013-11-16 23:04:00,
2013-11-16 18:09:00,50.0,43.3,30.31,West,265,0.9,2.0,78,0.00,,,0.00,meteobridge,2013-11-16 23:09:00,
2013-11-16 18:14:00,49.8,43.5,30.31,West,265,0.0,0.0,79,0.00,,,0.00,meteobridge,2013-11-16 23:14:00,
2013-11-16 18:19:00,49.5,42.8,30.31,West,265,0.9,0.9,78,0.00,,,0.00,meteobridge,2013-11-16 23:19:00,
2013-11-16 18:25:00,49.3,42.8,30.31,West,265,0.0,0.9,78,0.00,,,0.00,meteobridge,2013-11-16 23:25:00,
2013-11-16 18:30:00,48.7,42.4,30.31,West,265,0.0,0.0,79,0.00,,,0.00,meteobridge,2013-11-16 23:30:00,
2013-11-16 18:35:00,48.6,42.3,30.31,West,265,0.0,0.0,79,0.00,,,0.00,meteobridge,2013-11-16 23:35:00,
2013-11-16 18:40:00,48.0,42.1,30.31,West,265,0.0,0.0,80,0.00,,,0.00,meteobridge,2013-11-16 23:40:00,
2013-11-16 18:46:00,47.7,42.1,30.30,West,265,0.0,0.0,81,0.00,,,0.00,meteobridge,2013-11-16 23:46:00,
2013-11-16 18:51:00,47.3,42.1,30.30,West,265,0.0,0.0,82,0.00,,,0.00,meteobridge,2013-11-16 23:51:00,
2013-11-16 18:56:00,47.1,41.9,30.30,West,265,0.0,0.0,82,0.00,,,0.00,meteobridge,2013-11-16 23:56:00,
2013-11-16 19:02:00,46.8,41.9,30.30,West,265,0.0,0.0,83,0.00,,,0.00,meteobridge,2013-11-17 00:02:00,
2013-11-16 19:07:00,46.4,41.5,30.30,West,265,0.0,0.0,83,0.00,,,0.00,meteobridge,2013-11-17 00:07:00,
2013-11-16 19:12:00,45.9,41.4,30.30,West,265,0.0,2.0,84,0.00,,,0.00,meteobridge,2013-11-17 00:12:00,
2013-11-16 19:17:00,45.1,40.8,30.31,West,265,0.0,0.9,85,0.00,,,0.00,meteobridge,2013-11-17 00:17:00,
2013-11-16 19:22:00,45.0,41.0,30.31,West,265,0.0,0.0,86,0.00,,,0.00,meteobridge,2013-11-17 00:22:00,
2013-11-16 19:28:00,45.0,41.4,30.31,West,265,0.0,0.0,87,0.00,,,0.00,meteobridge,2013-11-17 00:28:00,
2013-11-16 19:33:00,44.8,40.8,30.31,West,265,0.0,0.0,86,0.00,,,0.00,meteobridge,2013-11-17 00:33:00,
2013-11-16 19:38:00,44.4,40.8,30.31,West,265,0.0,0.0,87,0.00,,,0.00,meteobridge,2013-11-17 00:38:00,
2013-11-16 19:43:00,44.2,40.6,30.31,West,265,0.0,0.0,87,0.00,,,0.00,meteobridge,2013-11-17 00:43:00,
2013-11-16 19:49:00,43.9,40.6,30.31,West,265,0.0,0.0,88,0.00,,,0.00,meteobridge,2013-11-17 00:49:00,
2013-11-16 19:54:00,43.5,40.3,30.31,West,265,0.0,0.0,88,0.00,,,0.00,meteobridge,2013-11-17 00:54:00,
2013-11-16 19:59:00,43.3,40.1,30.31,West,265,0.0,0.0,88,0.00,,,0.00,meteobridge,2013-11-17 00:59:00,
2013-11-16 20:04:00,43.3,40.3,30.31,West,265,0.0,0.0,89,0.00,,,0.00,meteobridge,2013-11-17 01:04:00,
2013-11-16 20:10:00,43.2,40.1,30.32,West,265,0.0,0.0,89,0.00,,,0.00,meteobridge,2013-11-17 01:10:00,
2013-11-16 20:15:00,43.0,39.9,30.32,West,265,0.0,0.0,89,0.00,,,0.00,meteobridge,2013-11-17 01:15:00,
2013-11-16 20:20:00,43.0,39.9,30.31,West,265,0.0,0.0,89,0.00,,,0.00,meteobridge,2013-11-17 01:20:00,
2013-11-16 20:26:00,42.8,39.7,30.31,West,265,0.0,0.0,89,0.00,,,0.00,meteobridge,2013-11-17 01:26:00,
2013-11-16 20:31:00,42.6,39.6,30.32,West,265,0.0,0.0,89,0.00,,,0.00,meteobridge,2013-11-17 01:31:00,
2013-11-16 20:36:00,42.4,39.4,30.32,West,265,0.0,0.0,89,0.00,,,0.00,meteobridge,2013-11-17 01:36:00,
2013-11-16 20:42:00,42.4,39.7,30.32,West,265,0.0,0.0,90,0.00,,,0.00,meteobridge,2013-11-17 01:42:00,
2013-11-16 20:47:00,42.3,39.6,30.32,West,265,0.0,0.0,90,0.00,,,0.00,meteobridge,2013-11-17 01:47:00,
2013-11-16 20:52:00,42.1,39.4,30.32,West,265,0.0,0.0,90,0.00,,,0.00,meteobridge,2013-11-17 01:52:00,
2013-11-16 20:58:00,41.7,39.0,30.32,West,265,0.0,0.0,90,0.00,,,0.00,meteobridge,2013-11-17 01:58:00,
2013-11-16 21:03:00,41.5,38.8,30.32,West,265,0.0,0.0,90,0.00,,,0.00,meteobridge,2013-11-17 02:03:00,
2013-11-16 21:08:00,41.4,38.7,30.32,West,265,0.0,0.0,90,0.00,,,0.00,meteobridge,2013-11-17 02:08:00,
2013-11-16 21:13:00,41.4,38.7,30.32,West,265,0.0,0.0,90,0.00,,,0.00,meteobridge,2013-11-17 02:13:00,
2013-11-16 21:18:00,41.2,38.5,30.32,West,265,0.0,0.0,90,0.00,,,0.00,meteobridge,2013-11-17 02:18:00,
2013-11-16 21:24:00,41.2,38.8,30.32,West,265,0.0,0.0,91,0.00,,,0.00,meteobridge,2013-11-17 02:24:00,
2013-11-16 21:29:00,41.0,38.7,30.31,West,265,0.0,0.0,91,0.00,,,0.00,meteobridge,2013-11-17 02:29:00,
2013-11-16 21:34:00,40.8,38.5,30.31,West,265,0.0,0.0,91,0.00,,,0.00,meteobridge,2013-11-17 02:34:00,
2013-11-16 21:39:00,40.6,38.3,30.31,West,265,0.0,0.0,91,0.00,,,0.00,meteobridge,2013-11-17 02:39:00,
2013-11-16 21:45:00,40.5,38.1,30.31,West,265,0.0,0.0,91,0.00,,,0.00,meteobridge,2013-11-17 02:45:00,
2013-11-16 21:50:00,40.3,37.9,30.31,West,265,0.0,0.0,91,0.00,,,0.00,meteobridge,2013-11-17 02:50:00,
2013-11-16 21:55:00,40.1,37.8,30.30,West,265,0.0,0.0,91,0.00,,,0.00,meteobridge,2013-11-17 02:55:00,
2013-11-16 22:00:00,39.9,37.6,30.30,West,265,0.0,0.0,91,0.00,,,0.00,meteobridge,2013-11-17 03:00:00,
2013-11-16 22:05:00,39.7,37.4,30.30,West,265,0.0,0.0,91,0.00,,,0.00,meteobridge,2013-11-17 03:05:00,
2013-11-16 22:11:00,39.7,37.4,30.30,West,265,0.0,0.0,91,0.00,,,0.00,meteobridge,2013-11-17 03:11:00,
2013-11-16 22:16:00,39.7,37.4,30.30,West,265,0.0,0.0,91,0.00,,,0.00,meteobridge,2013-11-17 03:16:00,
2013-11-16 22:21:00,39.6,37.2,30.30,West,265,0.0,0.0,91,0.00,,,0.00,meteobridge,2013-11-17 03:21:00,
2013-11-16 22:26:00,39.6,37.4,30.30,West,265,0.0,0.0,92,0.00,,,0.00,meteobridge,2013-11-17 03:26:00,
2013-11-16 22:31:00,39.4,37.2,30.30,West,265,0.0,0.0,92,0.00,,,0.00,meteobridge,2013-11-17 03:31:00,
2013-11-16 22:36:00,39.4,37.2,30.31,West,265,0.0,0.0,92,0.00,,,0.00,meteobridge,2013-11-17 03:36:00,
2013-11-16 22:41:00,39.0,36.9,30.31,West,265,0.0,0.0,92,0.00,,,0.00,meteobridge,2013-11-17 03:41:00,
2013-11-16 22:46:00,38.8,36.7,30.30,West,265,0.0,0.0,92,0.00,,,0.00,meteobridge,2013-11-17 03:46:00,
2013-11-16 22:51:00,38.7,36.5,30.30,West,265,0.0,0.0,92,0.00,,,0.00,meteobridge,2013-11-17 03:51:00,
2013-11-16 22:57:00,38.7,36.5,30.30,West,265,0.0,0.0,92,0.00,,,0.00,meteobridge,2013-11-17 03:57:00,
2013-11-16 23:02:00,38.5,36.3,30.31,West,265,0.0,0.0,92,0.00,,,0.00,meteobridge,2013-11-17 04:02:00,
2013-11-16 23:07:00,38.5,36.3,30.31,West,265,2.0,2.0,92,0.00,,,0.00,meteobridge,2013-11-17 04:07:00,
2013-11-16 23:13:00,38.1,36.0,30.31,West,265,0.0,0.0,92,0.00,,,0.00,meteobridge,2013-11-17 04:13:00,
2013-11-16 23:18:00,37.6,35.2,30.31,West,265,0.0,0.9,91,0.00,,,0.00,meteobridge,2013-11-17 04:18:00,
2013-11-16 23:23:00,37.2,34.9,30.31,West,265,0.0,0.0,91,0.00,,,0.00,meteobridge,2013-11-17 04:23:00,
2013-11-16 23:28:00,37.0,34.9,30.30,West,265,0.0,0.0,92,0.00,,,0.00,meteobridge,2013-11-17 04:28:00,
2013-11-16 23:33:00,36.9,34.7,30.30,West,265,0.0,0.0,92,0.00,,,0.00,meteobridge,2013-11-17 04:33:00,
2013-11-16 23:38:00,36.9,34.7,30.30,West,265,0.0,0.0,92,0.00,,,0.00,meteobridge,2013-11-17 04:38:00,
2013-11-16 23:43:00,36.9,34.7,30.30,West,265,0.0,0.0,92,0.00,,,0.00,meteobridge,2013-11-17 04:43:00,
2013-11-16 23:49:00,36.7,34.9,30.31,West,265,0.0,0.0,93,0.00,,,0.00,meteobridge,2013-11-17 04:49:00,
2013-11-16 23:54:00,36.7,34.5,30.30,West,265,0.0,0.0,92,0.00,,,0.00,meteobridge,2013-11-17 04:54:00,
2013-11-16 23:59:00,36.3,34.5,30.30,West,265,0.0,0.0,93,0.00,,,0.00,meteobridge,2013-11-17 04:59:00,